385P/Hill (2019)

Japanese version
Home page
Updated on September 28, 2019

---------------------------------------------------------------------

* Profile

Designation 385P/2019 P1
Recovery Date August 2, 2019
Magnitude 20.4 mag
Recoverer K. Sarneczky (Piszkesteto Station of Konkoly Observatory)

* Orbital Elements

Epoch 2019 Oct. 4.0 TT = JDT 2458760.5                                          
T 2019 Sept. 14.81439 TT                                Williams                
q   2.5675990            (2000.0)            P               Q                  
n   0.11105358     Peri.   44.33673     +0.74839665     -0.66308745             
a   4.2866135      Node   357.07974     +0.49905229     +0.57762458             
e   0.4010192      Incl.   16.82617     +0.43686298     +0.47609335             
P   8.88                                                                        
From 267 observations 2010 Oct. 1-2019 Aug. 7, mean residual 0".6.              

* Magnitudes Graph

        m1 = 14.0 + 5 log d + 10.0 log r

---------------------------------------------------------------------

The orbital elements are published on M.P.E.C. 2019-P61.
The magnitudes graphs are made with Comet for Windows.

---------------------------------------------------------------------

Copyright(C) Seiichi Yoshida (comet@aerith.net). All rights reserved.